﻿測定場所 (Monitoring sites),日付 (Measurement date),時間 (Measurement time),線量率 最大値 (max) μGy/h,線量率 最小値 (min) μGy/h,線量率 平均値 (average) μGy/h,
足立 (Adachi),2017-10-22,23:01～24:00,0.0416,0.0333,0.0366,
足立 (Adachi),2017-10-22,22:01～23:00,0.0414,0.0360,0.0387,
足立 (Adachi),2017-10-22,21:01～22:00,0.0411,0.0346,0.0374,
足立 (Adachi),2017-10-22,20:01～21:00,0.0412,0.0354,0.0377,
足立 (Adachi),2017-10-22,19:01～20:00,0.0453,0.0369,0.0410,
足立 (Adachi),2017-10-22,18:01～19:00,0.0438,0.0367,0.0394,
足立 (Adachi),2017-10-22,17:01～18:00,0.0418,0.0347,0.0380,
足立 (Adachi),2017-10-22,16:01～17:00,0.0411,0.0362,0.0386,
足立 (Adachi),2017-10-22,15:01～16:00,0.0419,0.0362,0.0382,
足立 (Adachi),2017-10-22,14:01～15:00,0.0418,0.0351,0.0376,
足立 (Adachi),2017-10-22,13:01～14:00,0.0440,0.0363,0.0393,
足立 (Adachi),2017-10-22,12:01～13:00,0.0428,0.0349,0.0373,
足立 (Adachi),2017-10-22,11:01～12:00,0.0434,0.0360,0.0392,
足立 (Adachi),2017-10-22,10:01～11:00,0.0468,0.0406,0.0431,
足立 (Adachi),2017-10-22,09:01～10:00,0.0468,0.0392,0.0425,
足立 (Adachi),2017-10-22,08:01～09:00,0.0471,0.0395,0.0421,
足立 (Adachi),2017-10-22,07:01～08:00,0.0458,0.0385,0.0425,
足立 (Adachi),2017-10-22,06:01～07:00,0.0433,0.0368,0.0405,
足立 (Adachi),2017-10-22,05:01～06:00,0.0418,0.0357,0.0379,
足立 (Adachi),2017-10-22,04:01～05:00,0.0411,0.0354,0.0375,
足立 (Adachi),2017-10-22,03:01～04:00,0.0412,0.0347,0.0368,
足立 (Adachi),2017-10-22,02:01～03:00,0.0395,0.0333,0.0354,
足立 (Adachi),2017-10-22,01:01～02:00,0.0371,0.0318,0.0339,
足立 (Adachi),2017-10-22,00:01～01:00,0.0340,0.0298,0.0321,
足立 (Adachi),2017-10-21,23:01～24:00,0.0344,0.0298,0.0319,
足立 (Adachi),2017-10-21,22:01～23:00,0.0347,0.0317,0.0330,
足立 (Adachi),2017-10-21,21:01～22:00,0.0344,0.0303,0.0327,
足立 (Adachi),2017-10-21,20:01～21:00,0.0336,0.0292,0.0319,
足立 (Adachi),2017-10-21,19:01～20:00,0.0358,0.0315,0.0332,
足立 (Adachi),2017-10-21,18:01～19:00,0.0383,0.0326,0.0349,
足立 (Adachi),2017-10-21,17:01～18:00,0.0424,0.0351,0.0388,
足立 (Adachi),2017-10-21,16:01～17:00,0.0435,0.0365,0.0399,
足立 (Adachi),2017-10-21,15:01～16:00,0.0431,0.0352,0.0375,
足立 (Adachi),2017-10-21,14:01～15:00,0.0444,0.0357,0.0393,
足立 (Adachi),2017-10-21,13:01～14:00,0.0424,0.0361,0.0384,
足立 (Adachi),2017-10-21,12:01～13:00,0.0427,0.0357,0.0391,
足立 (Adachi),2017-10-21,11:01～12:00,0.0443,0.0356,0.0384,
足立 (Adachi),2017-10-21,10:01～11:00,0.0475,0.0408,0.0433,
足立 (Adachi),2017-10-21,09:01～10:00,0.0496,0.0417,0.0452,
足立 (Adachi),2017-10-21,08:01～09:00,0.0465,0.0361,0.0407,
足立 (Adachi),2017-10-21,07:01～08:00,0.0447,0.0367,0.0406,
足立 (Adachi),2017-10-21,06:01～07:00,0.0450,0.0383,0.0413,
足立 (Adachi),2017-10-21,05:01～06:00,0.0471,0.0380,0.0415,
足立 (Adachi),2017-10-21,04:01～05:00,0.0440,0.0357,0.0395,
足立 (Adachi),2017-10-21,03:01～04:00,0.0459,0.0386,0.0422,
足立 (Adachi),2017-10-21,02:01～03:00,0.0457,0.0380,0.0419,
足立 (Adachi),2017-10-21,01:01～02:00,0.0463,0.0392,0.0425,
足立 (Adachi),2017-10-21,00:01～01:00,0.0433,0.0366,0.0400,
足立 (Adachi),2017-10-20,23:01～24:00,0.0417,0.0355,0.0373,
足立 (Adachi),2017-10-20,22:01～23:00,0.0426,0.0353,0.0382,
足立 (Adachi),2017-10-20,21:01～22:00,0.0430,0.0359,0.0389,
足立 (Adachi),2017-10-20,20:01～21:00,0.0460,0.0379,0.0414,
足立 (Adachi),2017-10-20,19:01～20:00,0.0446,0.0370,0.0414,
足立 (Adachi),2017-10-20,18:01～19:00,0.0381,0.0322,0.0345,
足立 (Adachi),2017-10-20,17:01～18:00,0.0350,0.0282,0.0318,
足立 (Adachi),2017-10-20,16:01～17:00,0.0328,0.0286,0.0309,
足立 (Adachi),2017-10-20,15:01～16:00,0.0326,0.0288,0.0310,
足立 (Adachi),2017-10-20,14:01～15:00,0.0329,0.0292,0.0311,
足立 (Adachi),2017-10-20,13:01～14:00,0.0347,0.0296,0.0313,
足立 (Adachi),2017-10-20,12:01～13:00,0.0343,0.0297,0.0318,
足立 (Adachi),2017-10-20,11:01～12:00,0.0351,0.0304,0.0331,
足立 (Adachi),2017-10-20,10:01～11:00,0.0347,0.0306,0.0328,
足立 (Adachi),2017-10-20,09:01～10:00,0.0400,0.0323,0.0351,
足立 (Adachi),2017-10-20,08:01～09:00,0.0479,0.0357,0.0413,
足立 (Adachi),2017-10-20,07:01～08:00,0.0536,0.0435,0.0482,
足立 (Adachi),2017-10-20,06:01～07:00,0.0490,0.0408,0.0458,
足立 (Adachi),2017-10-20,05:01～06:00,0.0476,0.0395,0.0435,
足立 (Adachi),2017-10-20,04:01～05:00,0.0462,0.0390,0.0421,
足立 (Adachi),2017-10-20,03:01～04:00,0.0489,0.0405,0.0450,
足立 (Adachi),2017-10-20,02:01～03:00,0.0455,0.0347,0.0388,
足立 (Adachi),2017-10-20,01:01～02:00,0.0380,0.0313,0.0350,
足立 (Adachi),2017-10-20,00:01～01:00,0.0364,0.0315,0.0339,
足立 (Adachi),2017-10-19,23:01～24:00,0.0389,0.0327,0.0356,
足立 (Adachi),2017-10-19,22:01～23:00,0.0454,0.0356,0.0398,
足立 (Adachi),2017-10-19,21:01～22:00,0.0442,0.0374,0.0406,
足立 (Adachi),2017-10-19,20:01～21:00,0.0462,0.0371,0.0412,
足立 (Adachi),2017-10-19,19:01～20:00,0.0503,0.0410,0.0458,
足立 (Adachi),2017-10-19,18:01～19:00,0.0490,0.0393,0.0445,
足立 (Adachi),2017-10-19,17:01～18:00,0.0511,0.0387,0.0449,
足立 (Adachi),2017-10-19,16:01～17:00,0.0525,0.0449,0.0488,
足立 (Adachi),2017-10-19,15:01～16:00,0.0579,0.0504,0.0538,
足立 (Adachi),2017-10-19,14:01～15:00,0.0553,0.0413,0.0489,
足立 (Adachi),2017-10-19,13:01～14:00,0.0519,0.0407,0.0465,
足立 (Adachi),2017-10-19,12:01～13:00,0.0542,0.0367,0.0467,
足立 (Adachi),2017-10-19,11:01～12:00,0.0428,0.0360,0.0393,
足立 (Adachi),2017-10-19,10:01～11:00,0.0468,0.0373,0.0422,
足立 (Adachi),2017-10-19,09:01～10:00,0.0456,0.0370,0.0417,
足立 (Adachi),2017-10-19,08:01～09:00,0.0460,0.0359,0.0397,
足立 (Adachi),2017-10-19,07:01～08:00,0.0432,0.0363,0.0391,
足立 (Adachi),2017-10-19,06:01～07:00,0.0432,0.0354,0.0390,
足立 (Adachi),2017-10-19,05:01～06:00,0.0408,0.0353,0.0377,
足立 (Adachi),2017-10-19,04:01～05:00,0.0406,0.0355,0.0383,
足立 (Adachi),2017-10-19,03:01～04:00,0.0425,0.0357,0.0386,
足立 (Adachi),2017-10-19,02:01～03:00,0.0412,0.0358,0.0383,
足立 (Adachi),2017-10-19,01:01～02:00,0.0405,0.0343,0.0369,
足立 (Adachi),2017-10-19,00:01～01:00,0.0392,0.0327,0.0359,
足立 (Adachi),2017-10-18,23:01～24:00,0.0369,0.0323,0.0350,
足立 (Adachi),2017-10-18,22:01～23:00,0.0362,0.0312,0.0332,
足立 (Adachi),2017-10-18,21:01～22:00,0.0337,0.0297,0.0316,
足立 (Adachi),2017-10-18,20:01～21:00,0.0332,0.0294,0.0317,
足立 (Adachi),2017-10-18,19:01～20:00,0.0329,0.0289,0.0312,
足立 (Adachi),2017-10-18,18:01～19:00,0.0327,0.0293,0.0311,
足立 (Adachi),2017-10-18,17:01～18:00,0.0332,0.0288,0.0310,
足立 (Adachi),2017-10-18,16:01～17:00,0.0332,0.0292,0.0313,
足立 (Adachi),2017-10-18,15:01～16:00,0.0328,0.0295,0.0312,
足立 (Adachi),2017-10-18,14:01～15:00,0.0334,0.0292,0.0314,
足立 (Adachi),2017-10-18,13:01～14:00,0.0337,0.0300,0.0314,
足立 (Adachi),2017-10-18,12:01～13:00,0.0332,0.0295,0.0313,
足立 (Adachi),2017-10-18,11:01～12:00,0.0335,0.0298,0.0314,
足立 (Adachi),2017-10-18,10:01～11:00,0.0334,0.0293,0.0316,
足立 (Adachi),2017-10-18,09:01～10:00,0.0337,0.0303,0.0319,
足立 (Adachi),2017-10-18,08:01～09:00,0.0332,0.0293,0.0315,
足立 (Adachi),2017-10-18,07:01～08:00,0.0335,0.0291,0.0314,
足立 (Adachi),2017-10-18,06:01～07:00,0.0335,0.0290,0.0316,
足立 (Adachi),2017-10-18,05:01～06:00,0.0342,0.0300,0.0318,
足立 (Adachi),2017-10-18,04:01～05:00,0.0334,0.0299,0.0318,
足立 (Adachi),2017-10-18,03:01～04:00,0.0339,0.0302,0.0319,
足立 (Adachi),2017-10-18,02:01～03:00,0.0343,0.0298,0.0319,
足立 (Adachi),2017-10-18,01:01～02:00,0.0341,0.0294,0.0319,
足立 (Adachi),2017-10-18,00:01～01:00,0.0338,0.0288,0.0314,
足立 (Adachi),2017-10-17,23:01～24:00,0.0336,0.0299,0.0316,
足立 (Adachi),2017-10-17,22:01～23:00,0.0330,0.0297,0.0313,
足立 (Adachi),2017-10-17,21:01～22:00,0.0334,0.0294,0.0313,
足立 (Adachi),2017-10-17,20:01～21:00,0.0339,0.0285,0.0313,
足立 (Adachi),2017-10-17,19:01～20:00,0.0329,0.0286,0.0310,
足立 (Adachi),2017-10-17,18:01～19:00,0.0326,0.0285,0.0306,
足立 (Adachi),2017-10-17,17:01～18:00,0.0324,0.0289,0.0306,
足立 (Adachi),2017-10-17,16:01～17:00,0.0325,0.0290,0.0307,
足立 (Adachi),2017-10-17,15:01～16:00,0.0325,0.0291,0.0305,
足立 (Adachi),2017-10-17,14:01～15:00,0.0330,0.0291,0.0312,
足立 (Adachi),2017-10-17,13:01～14:00,0.0354,0.0303,0.0326,
足立 (Adachi),2017-10-17,12:01～13:00,0.0410,0.0332,0.0360,
足立 (Adachi),2017-10-17,11:01～12:00,0.0404,0.0354,0.0372,
足立 (Adachi),2017-10-17,10:01～11:00,0.0401,0.0340,0.0368,
足立 (Adachi),2017-10-17,09:01～10:00,0.0372,0.0332,0.0355,
足立 (Adachi),2017-10-17,08:01～09:00,0.0385,0.0335,0.0356,
足立 (Adachi),2017-10-17,07:01～08:00,0.0396,0.0336,0.0360,
足立 (Adachi),2017-10-17,06:01～07:00,0.0384,0.0332,0.0357,
足立 (Adachi),2017-10-17,05:01～06:00,0.0424,0.0344,0.0373,
足立 (Adachi),2017-10-17,04:01～05:00,0.0398,0.0336,0.0358,
足立 (Adachi),2017-10-17,03:01～04:00,0.0451,0.0359,0.0408,
足立 (Adachi),2017-10-17,02:01～03:00,0.0472,0.0361,0.0408,
足立 (Adachi),2017-10-17,01:01～02:00,0.0434,0.0358,0.0396,
足立 (Adachi),2017-10-17,00:01～01:00,0.0435,0.0342,0.0385,
足立 (Adachi),2017-10-16,23:01～24:00,0.0421,0.0359,0.0386,
足立 (Adachi),2017-10-16,22:01～23:00,0.0467,0.0368,0.0426,
足立 (Adachi),2017-10-16,21:01～22:00,0.0456,0.0364,0.0403,
足立 (Adachi),2017-10-16,20:01～21:00,0.0403,0.0343,0.0367,
足立 (Adachi),2017-10-16,19:01～20:00,0.0439,0.0359,0.0397,
足立 (Adachi),2017-10-16,18:01～19:00,0.0540,0.0408,0.0473,
足立 (Adachi),2017-10-16,17:01～18:00,0.0582,0.0491,0.0532,
足立 (Adachi),2017-10-16,16:01～17:00,0.0605,0.0510,0.0570,
足立 (Adachi),2017-10-16,15:01～16:00,0.0564,0.0446,0.0496,
足立 (Adachi),2017-10-16,14:01～15:00,0.0584,0.0465,0.0531,
足立 (Adachi),2017-10-16,13:01～14:00,0.0562,0.0506,0.0536,
足立 (Adachi),2017-10-16,12:01～13:00,0.0557,0.0397,0.0461,
足立 (Adachi),2017-10-16,11:01～12:00,0.0493,0.0406,0.0452,
足立 (Adachi),2017-10-16,10:01～11:00,0.0532,0.0455,0.0481,
足立 (Adachi),2017-10-16,09:01～10:00,0.0490,0.0412,0.0451,
足立 (Adachi),2017-10-16,08:01～09:00,0.0517,0.0437,0.0473,
足立 (Adachi),2017-10-16,07:01～08:00,0.0541,0.0413,0.0460,
足立 (Adachi),2017-10-16,06:01～07:00,0.0536,0.0422,0.0467,
足立 (Adachi),2017-10-16,05:01～06:00,0.0531,0.0444,0.0487,
足立 (Adachi),2017-10-16,04:01～05:00,0.0515,0.0419,0.0476,
足立 (Adachi),2017-10-16,03:01～04:00,0.0516,0.0425,0.0476,
足立 (Adachi),2017-10-16,02:01～03:00,0.0533,0.0442,0.0489,
足立 (Adachi),2017-10-16,01:01～02:00,0.0534,0.0426,0.0487,
足立 (Adachi),2017-10-16,00:01～01:00,0.0475,0.0388,0.0438,
